Location: Rounton
(54.4000°N, 1.3500°W)
Time: 22:22:20
(UTC+00:00)

Tiros 1 despin weight - Pass Details

Date: 30 September 2023
Orbit: 583 x 628 km, 48.2° (Epoch: 28 November)

Event Time Altitude Azimuth Distance (km) Brightness Sun altitude
Rises 20:44:16 0° 213° (SSW) 2,863 ? -17.9°
Reaches altitude 10° 20:47:08 10° 195° (SSW) 1,951 ? -18.3°
Enters shadow 20:48:46 16° 175° (S) 1,591 ? -18.5°
